Rbgn^[z[y[W
メイン
   新天体発見情報
     Comet P/2002 T5 = 2020 Q3 (LINEAR)
投稿するにはまず登録を

スレッド表示 | 新しいものから 前のトピック | 次のトピック | 下へ
投稿者 スレッド
佐藤裕久
投稿日時: 2020-9-23 15:12
モデレータ
登録日: 2005-6-12
居住地: 日本
投稿: 2505
オンライン
Comet P/2002 T5 = 2020 Q3 (LINEAR)

E. Schwab (Calar Alto-Schmidt:Z84)の通報によると、8月18日、P/2002 T5を検出した。
佐藤裕久は8月17.71日UT、池村俊彦氏(新城観測所:Q11)の撮影した画像から全光度18.6等
の検出前のこの彗星を見つけた。捜索中心位置より東側へ約4.6'離れていた。中程度の集光
した約8"のコマが見えるが尾は見えなかった。

検出位置は次のとおり、

     2020 UT             R.A. (2000) Decl.       Mag.   Observer
     Aug. 18.10874    3 06 18.25   -17 20 24.8   19.5   Schwab
          18.11793    3 06 18.46   -17 20 27.8   19.7     "
          18.13634    3 06 18.83   -17 20 33.5   19.8     "
          19.10875    3 06 38.84   -17 25 46.0   19.4     "
          19.11795    3 06 39.04   -17 25 48.7   19.5     "
          19.12715    3 06 39.21   -17 25 51.2   20.0     "
          19.13637    3 06 39.40   -17 25 54.3   19.6     "
          19.20883    3 06 40.85   -17 26 17.7   19.2   Kuusela
          19.21638    3 06 41.00   -17 26 20.1   19.4     "

NK 3660とICQ's 2019-2020 Comet Handbookの中野主一氏の予報に対し、Delta(T)は、
-0.80 dayであった。MPC 109588のG. V. Williamsの予報に対するDelta(T)は-0.84 day
であった。

MPCの連結軌道要素と位置推算表は次のとおり、

Orbital elements:
    P/2002 T5 (LINEAR)                                                          
Epoch 2003 June 10.0 TT = JDT 2452800.5                                         
T 2003 June 27.85330 TT                                 Rudenko                 
q   3.9340553            (2000.0)            P               Q                  
n   0.05340169     Peri.  326.75881     -0.06659725     -0.90078641             
a   6.9839221      Node   123.33129     +0.99023710     -0.11245164             
e   0.4366983      Incl.   30.90463     +0.12245526     +0.41945021             
P  18.5                                                                         
>From 1025 observations 2002 Oct. 5-2020 Sept. 15, mean residual 0".7.           
                                                                                
    P/2002 T5 (LINEAR)                                                          
Epoch 2021 Dec. 12.0 TT = JDT 2459560.5                                         
T 2021 Dec. 14.54832 TT                                 Rudenko                 
q   3.9378761            (2000.0)            P               Q                  
n   0.05304381     Peri.  326.73180     -0.06194576     -0.90087472             
a   7.0152996      Node   123.09142     +0.99049360     -0.10845970             
e   0.4386731      Incl.   30.85150     +0.12282164     +0.42031087             
P  18.6                                                                         
>From 1025 observations 2002 Oct. 5-2020 Sept. 15, mean residual 0".7.           
                                                                                
    P/2002 T5 (LINEAR)                                                          
Epoch 2040 Sept. 3.0 TT = JDT 2466400.5                                         
T 2040 Aug. 21.00898 TT                                 Rudenko                 
q   3.9387650            (2000.0)            P               Q                  
n   0.05300752     Peri.  327.22588     -0.06982439     -0.90017607             
a   7.0185012      Node   123.09303     +0.98953648     -0.11704635             
e   0.4388025      Incl.   30.87253     +0.12626207     +0.41950351             
P  18.6                                                                         
>From 1025 observations 2002 Oct. 5-2020 Sept. 15, mean residual 0".7.           
                                                                                
    P/2002 T5 (LINEAR)                                                          
Epoch 2020 Dec. 17.0 TT = JDT 2459200.5                                         
T 2021 Dec. 14.78301 TT                                 Rudenko                 
q   3.9377155            (2000.0)            P               Q                  
n   0.05314960     Peri.  326.76354     -0.06239882     -0.90082748             
a   7.0059879      Node   123.08830     +0.99043764     -0.10896536             
e   0.4379500      Incl.   30.85295     +0.12304334     +0.42028133             
P  18.5                                                                         
>From 1025 observations 2002 Oct. 5-2020 Sept. 15, mean residual 0".7.           
                                                                                
Ephemeris:
Date    TT    R. A. (2000) Decl.     Delta      r    Elong.  Phase   m1
2020 08 24    03 08 08.5 -17 52 49   4.3171  4.7357   108.5    11.7  17.9
...
2020 09 08    03 10 44.7 -19 23 24   4.1188  4.6935   119.2    10.8  17.8
...
2020 09 16    03 10 50.1 -20 14 16   4.0255  4.6712   124.7    10.2  17.7
...
2020 09 22    03 10 17.4 -20 52 19   3.9625  4.6547   128.6     9.7  17.7
2020 09 23    03 10 09.0 -20 58 35   3.9526  4.6519   129.2     9.6  17.7
2020 09 24    03 09 59.7 -21 04 49   3.9429  4.6492   129.8     9.5  17.7
...
2020 09 30    03 08 46.2 -21 41 19   3.8888  4.6327   133.2     9.1  17.6
...
2020 10 08    03 06 23.8 -22 26 31   3.8282  4.6110   137.1     8.5  17.6
...
2020 10 23    03 00 00.3 -23 33 40   3.7531  4.5708   141.2     7.8  17.5

(MPEC 2020-S155、CBET 4835、oaa-comet:1077)

スレッド表示 | 新しいものから 前のトピック | 次のトピック | トップ

投稿するにはまず登録を
 
© 1999 Tsutomu Seki.